TimeEDT,TemperatureF,Dew PointF,Humidity,Sea Level PressureIn,VisibilityMPH,Wind Direction,Wind SpeedMPH,Gust SpeedMPH,PrecipitationIn,Events,Conditions,WindDirDegrees,DateUTC
12:53 AM,64.0,61.0,90,30.17,10.0,NNE,6.9,-,N/A,,Clear,20,2011-11-03 04:53:00
1:53 AM,62.1,59.0,90,30.17,10.0,NNW,4.6,-,N/A,,Partly Cloudy,330,2011-11-03 05:53:00
2:53 AM,61.0,59.0,93,30.15,9.0,North,5.8,-,N/A,,Partly Cloudy,350,2011-11-03 06:53:00
3:53 AM,62.1,59.0,90,30.14,9.0,North,6.9,-,N/A,,Overcast,360,2011-11-03 07:53:00
4:53 AM,61.0,59.0,93,30.14,8.0,NNE,6.9,-,N/A,,Clear,20,2011-11-03 08:53:00
5:53 AM,61.0,59.0,93,30.13,8.0,North,3.5,-,N/A,,Overcast,10,2011-11-03 09:53:00
6:53 AM,60.1,57.9,93,30.14,7.0,Calm,Calm,-,N/A,,Clear,0,2011-11-03 10:53:00
7:53 AM,59.0,57.9,96,30.14,5.0,NNW,3.5,-,N/A,,Mostly Cloudy,340,2011-11-03 11:53:00
8:53 AM,62.1,59.0,90,30.16,8.0,North,3.5,-,N/A,,Mostly Cloudy,350,2011-11-03 12:53:00
9:53 AM,66.0,61.0,84,30.16,10.0,Variable,3.5,-,N/A,,Mostly Cloudy,0,2011-11-03 13:53:00
10:53 AM,72.0,62.1,71,30.16,9.0,Calm,Calm,-,N/A,,Mostly Cloudy,0,2011-11-03 14:53:00
11:53 AM,75.0,62.1,64,30.14,10.0,SE,3.5,-,N/A,,Scattered Clouds,140,2011-11-03 15:53:00
12:53 PM,78.1,61.0,56,30.11,10.0,Variable,4.6,-,N/A,,Partly Cloudy,0,2011-11-03 16:53:00
1:53 PM,79.0,59.0,50,30.07,10.0,South,5.8,-,N/A,,Clear,180,2011-11-03 17:53:00
3:53 PM,79.0,59.0,50,30.01,10.0,SSE,3.5,-,N/A,,Clear,160,2011-11-03 19:53:00
5:53 PM,75.9,62.1,62,29.99,10.0,SSE,3.5,-,N/A,,Overcast,160,2011-11-03 21:53:00
6:53 PM,73.9,62.1,66,29.99,10.0,Calm,Calm,-,N/A,,Mostly Cloudy,0,2011-11-03 22:53:00
7:53 PM,72.0,63.0,73,29.99,10.0,SSE,4.6,-,N/A,,Mostly Cloudy,150,2011-11-03 23:53:00
8:53 PM,71.1,62.1,73,29.99,10.0,South,3.5,-,N/A,,Mostly Cloudy,190,2011-11-04 00:53:00
10:53 PM,66.9,61.0,81,29.99,10.0,SSW,6.9,-,N/A,,Scattered Clouds,200,2011-11-04 02:53:00
11:53 PM,66.9,62.1,84,29.98,10.0,South,4.6,-,N/A,,Mostly Cloudy,190,2011-11-04 03:53:00